Weather in Troitskiye Roslyai

Russia / Tambov Oblast     53°21′40″N   41°22′59″E
temp.,
°C
wind,
m/s
gust,
m/s
humid.,
%
clouds,
%
prec.,
mm/h
press.,
hPa
HPBL,
m
5 august, thu
thu500:00+17wnw22615 0.0 101719
03:00+15n227082 0.0 101711
06:00+16n12701 0.0 101853
09:00+22ene22474 0.0 1017705
12:00+26ssw1236100 0.0 10172219
15:00+26sw323322 0.0 10162285
18:00+26sw23356 0.0 10162009
21:00+20sse3452100 0.0 101550
6 august, fri
fri600:00+20sse3652100 0.0 1015126
03:00+18se386197 0.0 1015151
06:00+18sse386251 0.0 1015210
09:00+25sse574112 0.0 1015634
12:00+30s67305 0.0 10142078
15:00+31s6727100 0.0 10122567
18:00+29sse573370 0.0 10111604
21:00+24se513466 0.0 1011290
7 august, sat
sat700:00+23sse51542100 0.0 1012375
03:00+21sse5144490 0.0 1012361
06:00+21sse41444100 0.0 1013415
09:00+25s4113780 0.0 1013568
12:00+31s6724100 0.0 10131287
15:00+32sse6722100 0.0 10122068
18:00+31se46269 0.0 10121632
21:00+24ese41142100 0.0 1012188
8 august, sun
sun800:00+22se41142100 0.0 1012209
03:00+20se31043100 0.0 1012155
06:00+20se385099 0.1 1013173
09:00+28s4629100 0.1 1013387
12:00+29ese2230100 0.0 1013278
15:00+31sse4928100 0.0 10121024
18:00+30ssw5932100 0.0 1013866
21:00+24ssw31148100 0.0 1014239
9 august, mon
mon900:00+24wsw2541100 0.0 1015119
03:00+20n346098 0.0 101556
06:00+19nne498295 0.0 1015266
09:00+26nne564910 0.0 1014721
12:00+30nne553319 0.0 10141495
15:00+31n542955 0.0 10132149
18:00+29n65300 0.0 10131614
21:00+22n47440 0.0 1014105